Snowfall_Accumulation
1.5 3.5 7.1 2.4 2.4 2.5 3.1 3.6 3.4 2.3 1.2 1.9 1.6 1.5 1.2 0.9 0.9 1.1 1.0 1.0 0.7 0.4 0.3 0.3 0.1 0.1 0.2 0.1 0.1 0.1 0.2 0.4 0.1 0.2 0.1 0.1 0.1 0.2 0.1 0.2 0.2 0.2 0.3 0.1
3.8 5.7 1.4 0.7 1.0 2.5 3.6 5.0 3.6 2.2 1.4 2.4 2.5 2.1 1.6 1.2 1.4 1.4 1.3 1.3 0.8 0.4 0.4 0.3 0.3 0.2 0.1 0.1 0.2 0.2 0.2 0.4 0.4 0.3 0.2 0.1 0.2 0.2 0.4 0.3 0.3 0.2 0.5 0.4
6.6 3.1 0.8 1.1 2.7 4.3 4.4 4.7 3.9 3.8 2.3 2.0 3.2 4.0 2.4 1.7 1.4 1.1 1.1 1.3 1.0 0.6 0.6 0.3 0.3 0.3 0.3 0.3 0.2 0.3 0.3 0.4 0.4 0.6 0.4 0.1 0.1 0.2 0.5 0.6 0.3 0.4 0.4 0.5
3.3 1.2 0.8 1.9 2.7 3.8 5.8 2.2 2.7 3.4 5.0 6.6 6.1 10.8 4.2 2.5 1.4 1.3 1.1 1.3 1.1 0.9 0.6 0.5 0.4 0.5 0.5 0.4 0.2 0.3 0.3 0.4 0.4 0.4 0.4 0.5 0.4 0.7 0.5 0.8 0.8 0.5 0.3 0.5
4.5 1.3 1.5 3.1 2.4 2.3 3.3 1.4 2.0 3.3 6.4 9.5 4.7 9.2 7.1 2.1 2.5 2.0 1.8 1.6 1.5 1.3 1.1 0.8 0.6 0.7 0.6 0.6 0.5 0.2 0.3 0.3 0.5 0.5 0.8 0.4 0.6 0.7 0.8 0.7 0.9 0.4 0.3 0.5
1.9 0.8 1.1 2.0 1.0 1.1 1.7 1.9 2.9 4.1 9.4 15.9 5.8 7.5 7.9 5.5 5.3 3.6 2.6 2.0 1.7 1.4 1.3 1.0 0.8 0.8 0.7 0.8 0.8 0.5 0.4 0.4 0.4 0.7 0.7 0.8 0.7 0.7 0.8 0.6 1.0 1.1 0.5 0.4
10.5 2.6 1.1 0.9 2.5 2.2 3.5 11.5 21.9 22.9 22.2 12.0 3.7 5.2 8.0 4.8 4.1 3.9 3.4 2.6 2.3 1.9 1.7 1.6 1.6 1.2 1.0 1.2 1.1 1.1 1.1 0.7 0.7 0.9 1.2 1.2 1.0 1.0 1.2 1.4 1.1 1.3 1.0 0.8
14.6 12.7 2.3 1.5 2.5 4.6 4.5 8.7 16.1 16.3 11.2 5.8 4.0 6.0 6.9 3.7 3.0 2.8 2.5 2.4 2.1 1.8 1.8 1.8 2.0 1.6 1.1 1.4 1.5 1.5 1.2 1.2 0.9 0.9 1.2 1.5 1.4 1.3 1.2 1.3 1.1 1.1 1.3 1.0
11.8 10.7 1.5 1.2 1.5 2.3 6.4 8.0 6.9 14.1 10.3 7.4 6.3 6.3 4.7 2.6 2.4 2.4 2.3 2.0 1.9 1.9 2.0 2.0 1.9 1.8 1.6 1.4 1.8 1.9 1.5 1.4 1.1 1.0 1.2 1.5 1.2 1.2 1.3 1.2 1.4 1.2 1.5 1.0
8.8 12.0 2.8 0.9 1.2 1.8 3.0 4.8 11.0 20.4 17.6 10.6 6.4 5.6 6.8 4.6 3.9 3.6 3.3 2.8 2.5 2.2 1.9 1.9 2.1 2.2 2.1 2.0 2.1 2.0 1.8 1.8 1.3 1.2 1.2 1.6 1.5 1.2 1.1 1.2 1.1 1.2 1.3 1.5
4.9 12.3 7.7 3.5 6.0 6.2 5.8 8.8 13.3 16.4 14.7 13.2 8.7 7.5 6.6 5.0 4.8 4.6 4.2 3.6 3.0 2.8 2.5 2.2 2.2 2.4 2.2 2.0 2.0 2.0 1.7 1.5 1.6 1.4 1.2 1.4 1.6 1.2 1.3 1.2 1.1 1.1 1.1 1.3
4.3 11.0 11.3 4.6 1.7 1.8 4.0 7.5 11.3 18.4 14.1 10.5 9.7 8.2 4.0 3.4 3.9 3.9 3.6 3.3 3.0 2.9 2.8 2.7 2.5 2.5 2.5 2.3 2.2 2.6 2.3 2.0 1.6 1.4 1.5 1.3 1.3 1.1 1.3 1.2 1.4 1.1 1.2 1.2
7.5 15.4 16.6 7.6 4.5 2.9 6.6 5.8 6.8 12.1 16.5 13.7 11.8 8.6 3.5 2.9 3.1 3.2 3.2 3.2 3.1 3.0 2.7 2.6 2.6 2.6 2.5 2.5 2.5 2.7 3.0 2.6 2.5 1.6 1.7 1.4 1.3 1.0 1.2 1.2 1.4 1.2 1.3 1.4
8.1 15.8 13.3 11.3 8.8 8.5 8.8 5.9 5.9 13.7 21.6 12.7 7.7 6.7 4.7 4.0 3.7 3.5 3.5 3.4 3.5 3.2 2.9 2.6 2.8 2.8 2.7 2.8 2.8 2.8 2.9 3.2 3.2 2.2 2.4 2.3 2.4 2.0 1.5 1.8 1.9 1.4 1.4 1.6
6.8 15.1 9.0 5.6 3.4 5.4 6.7 5.9 5.7 10.1 10.7 12.0 6.9 5.6 5.6 5.3 4.8 4.7 4.3 3.6 3.4 3.3 3.1 3.0 3.1 3.0 2.6 2.5 2.7 2.9 2.6 2.9 3.2 2.6 2.2 2.4 2.4 2.2 2.3 2.2 2.0 1.9 1.9 1.8
5.9 12.1 8.8 6.0 2.9 4.0 5.8 4.0 3.6 4.6 4.6 6.1 5.4 5.9 4.6 4.4 4.0 3.9 4.0 3.6 3.9 3.9 3.6 3.3 3.3 3.6 3.1 2.5 2.7 2.7 2.6 2.5 2.7 2.4 2.3 2.2 2.2 2.3 2.3 2.5 2.7 2.1 2.1 2.0
6.7 9.9 14.2 9.7 3.6 5.9 9.7 4.7 4.3 4.5 4.4 4.9 6.5 5.6 4.1 3.7 3.9 4.6 4.7 4.3 4.3 4.1 3.8 3.6 3.5 3.7 3.5 3.3 3.2 2.9 2.9 2.5 2.4 2.3 2.4 2.4 2.1 2.1 2.2 2.5 2.9 2.3 2.8 2.4
7.0 9.1 16.1 12.8 8.9 12.4 6.2 3.6 3.5 4.2 5.1 4.9 5.1 4.8 4.3 4.4 4.3 4.6 4.7 4.6 4.2 3.9 3.6 3.2 3.2 3.3 3.3 3.3 3.0 2.8 2.6 2.5 2.6 2.5 2.2 2.4 2.5 2.4 2.4 2.8 2.8 2.8 2.9 3.1
4.1 8.7 17.7 16.0 11.4 7.0 3.2 2.8 4.3 5.2 5.9 5.0 4.5 3.6 3.3 3.2 2.9 3.5 3.7 4.1 4.4 4.2 3.9 3.5 3.5 3.5 3.2 3.2 3.2 2.6 2.6 2.6 2.8 2.4 2.3 2.4 2.6 2.8 2.8 3.3 3.5 3.1 3.7 4.2
3.7 7.5 16.8 17.0 14.3 8.1 4.5 2.4 2.8 4.5 7.4 4.5 4.0 4.0 3.5 3.0 4.6 4.6 3.8 4.0 3.6 3.4 3.4 3.4 3.4 3.1 2.9 3.2 2.9 3.1 3.1 3.0 3.2 3.4 3.2 2.6 2.9 3.3 3.4 4.0 4.1 3.8 4.2 4.9
6.4 10.8 15.2 13.6 13.7 7.1 4.2 2.2 2.1 6.9 9.8 4.4 4.0 4.3 4.4 5.5 6.7 5.4 4.1 3.9 3.6 3.2 3.2 3.0 2.9 3.1 3.3 3.5 3.0 3.3 3.3 4.1 5.0 4.3 3.9 3.6 3.4 3.6 4.2 4.2 4.1 3.8 3.8 3.7
6.3 8.8 9.6 10.4 14.4 9.6 3.9 3.3 6.7 8.5 5.4 4.6 4.1 4.2 4.5 4.6 4.3 4.0 3.6 3.7 3.7 3.3 3.1 3.3 3.3 3.4 4.1 3.8 4.4 4.1 4.9 5.4 5.0 4.9 5.2 5.1 4.5 4.1 4.1 4.7 4.6 4.2 3.9 4.1
6.2 8.2 9.4 9.8 9.8 7.5 5.9 6.6 7.1 6.1 5.6 4.8 4.9 4.5 4.5 4.4 4.3 4.0 3.7 3.6 3.8 3.7 3.6 3.6 3.7 3.7 3.8 4.0 4.4 4.9 5.2 5.1 5.0 4.9 5.1 4.8 4.2 3.9 4.1 4.4 4.3 3.9 3.8 3.9
5.3 4.6 6.6 7.6 6.5 5.7 5.0 4.4 4.2 4.3 5.2 5.0 4.8 4.7 4.3 4.7 4.4 4.3 3.9 3.9 4.0 4.1 4.1 4.0 3.8 4.2 4.1 4.0 4.1 4.8 4.5 4.5 4.6 4.5 4.3 4.0 4.0 4.0 3.8 3.9 4.0 4.4 5.0 4.9
5.4 5.1 6.5 6.8 5.2 4.2 3.7 3.9 4.1 3.8 3.4 3.4 3.4 3.7 4.1 4.3 4.3 4.4 4.4 4.3 4.4 4.6 4.5 4.3 4.4 4.7 4.5 4.3 4.4 4.2 4.0 4.3 4.8 4.4 4.0 4.2 4.4 4.6 4.4 4.0 4.4 4.7 5.2 6.2
5.8 7.1 8.6 7.9 5.4 6.1 5.1 4.1 3.7 3.6 3.5 3.3 3.2 3.2 3.3 3.8 4.2 4.1 4.5 4.5 4.5 4.5 4.4 4.2 4.2 4.5 4.7 4.4 4.5 4.5 4.1 4.3 5.0 5.2 4.4 4.6 5.0 5.0 5.0 4.6 4.4 4.3 4.9 4.8